Location: Newark
(13.6797°N, 8.5297°E)
Time: 03:27:00
(UTC+00:00)

Courier 1B Rocket - Pass Details

Date: 26 January 2020
Orbit: 920 x 1202 km, 28.2° (Epoch: 17 February)

Event Time Altitude Azimuth Distance (km) Brightness Sun altitude
Rises 11:40:31 0° 287° (WNW) 3,952 8.1 57.5°
Reaches altitude 10° 11:43:58 10° 300° (WNW) 2,944 7.5 57.5°
Maximum altitude 11:49:39 25° 353° (N) 1,991 6.6 57.4°
Drops below altitude 10° 11:55:02 10° 46° (NE) 2,774 7.2 57.3°
Sets 11:58:11 0° 59° (ENE) 3,678 7.8 57.2°
